Flag for Italy Weather past 2 weeks in Cagliari, Italy

Now
75 °F

Sunny.


Feels Like: 76 °F
Forecast: 70 / 92 °F
Wind: 6 mph from Northwest

Location: Cagliari / Elmas

Current Time: Jul 5, 2015 at 8:45:46 AM

Latest Report: Jul 5, 2015 at 7:50 AM


Visibility: 10 mi

Pressure: 30.09 "Hg

Humidity: 78%

Dew point: 68 °F

Location of CagliariLocation

Historic Weather in Cagliari — Graph

°F

Cagliari temperature yesterday

Maximum temperature yesterday: 91 °F (at 2:50 PM)
Minimum temperature yesterday: 70 °F (at 4:50 AM)
Average temperature yesterday: 81 °F

Past Weeks' High & Low Weather Summary

 TemperatureHumidityPressure
High93 °F (Jun 28, 2:20 PM)94% (Jun 21, 1:20 AM)30.21 "Hg (Jun 21, 1:20 AM)
Low64 °F (Jun 22, 5:20 AM)22% (Jun 27, 6:20 PM)29.83 "Hg (Jun 23, 5:50 PM)
Average77 °F68%30.05 "Hg
* Reported Jun 20 7:20 AM — Jul 5 7:50 AM, Cagliari, Weather by CustomWeather, © 2015

Note: Actual official high and low records may vary slightly from our data, if they occured in-between our weather recording intervals... More about our weather records

Advertising

Cagliari weather history for previous 24 hours

 ConditionsComfort  
Time TempWeatherWind HumidityBarometerVisibility
7:50 AM
Sun, Jul 5
75 °FSunny.6 mph78%30.09 "Hg10 mi
7:20 AM75 °FSunny.1 mph74%30.09 "Hg10 mi
6:50 AM72 °FClear.2 mph78%30.09 "Hg10 mi
6:20 AM72 °FClear.3 mph78%30.09 "Hg10 mi
5:50 AM72 °FClear.2 mph78%30.09 "Hg10 mi
5:20 AM72 °FClear.1 mph78%30.09 "Hg10 mi
4:50 AM72 °FClear.2 mph78%30.09 "Hg10 mi
4:20 AM72 °FClear.No wind88%30.09 "Hg10 mi
3:50 AM73 °FClear.5 mph89%30.09 "Hg10 mi
3:20 AM73 °FPassing clouds.3 mph94%30.09 "HgN/A
2:50 AM75 °FClear.5 mph89%30.09 "Hg10 mi
2:20 AM75 °FClear.6 mph89%30.09 "Hg10 mi
1:50 AM75 °FClear.7 mph83%30.09 "Hg10 mi
1:20 AM77 °FClear.2 mph83%30.09 "Hg10 mi
12:50 AM79 °FClear.7 mph79%30.09 "Hg10 mi
12:20 AM79 °FClear.7 mph74%30.09 "Hg10 mi
11:50 PM
Sat, Jul 4
79 °FClear.7 mph70%30.09 "Hg10 mi
11:20 PM81 °FClear.8 mph66%30.09 "Hg10 mi
10:50 PM81 °FClear.7 mph58%30.09 "Hg10 mi
10:20 PM81 °FClear.2 mph70%30.09 "Hg10 mi
9:50 PM81 °FSunny.3 mph70%30.09 "Hg10 mi
9:20 PM81 °FSunny.2 mph70%30.09 "Hg10 mi
8:50 PM84 °FSunny.2 mph55%30.09 "Hg10 mi
8:20 PM86 °FSunny.5 mph49%30.09 "Hg10 mi
7:50 PM86 °FSunny.5 mph52%30.09 "Hg10 mi
7:20 PM88 °FSunny.5 mph46%30.09 "Hg10 mi
6:50 PM88 °FSunny.8 mph46%30.09 "Hg10 mi
6:20 PM70 °FPassing clouds.8 mph78%30.09 "HgN/A
5:50 PM86 °FSunny.10 mph52%30.09 "Hg10 mi
5:20 PM88 °FSunny.12 mph49%30.09 "Hg10 mi
4:50 PM88 °FPassing clouds.9 mph46%30.12 "HgN/A
4:20 PM90 °FPassing clouds.12 mph38%30.09 "HgN/A
3:50 PM90 °FSunny.14 mph38%30.12 "Hg10 mi
3:20 PM91 °FSunny.12 mph36%30.12 "Hg10 mi
2:50 PM91 °FSunny.13 mph32%30.12 "Hg10 mi
2:20 PM90 °FSunny.12 mph38%30.12 "Hg10 mi
1:50 PM88 °FSunny.12 mph43%30.15 "Hg10 mi
1:20 PM88 °FSunny.10 mph38%30.15 "Hg10 mi
12:50 PM88 °FPassing clouds.9 mph43%30.15 "HgN/A
12:20 PM88 °FSunny.9 mph38%30.15 "Hg10 mi
11:50 AM88 °FPassing clouds.8 mph38%30.15 "HgN/A
11:20 AM88 °FPassing clouds.7 mph35%30.15 "HgN/A
10:50 AM88 °FPassing clouds.5 mph33%30.15 "HgN/A
10:20 AM86 °FPassing clouds.5 mph38%30.15 "HgN/A
9:50 AM84 °FSunny.5 mph48%30.18 "Hg10 mi
9:20 AM82 °FSunny.3 mph48%30.18 "Hg10 mi
8:50 AM81 °FSunny.1 mph54%30.18 "Hg10 mi
8:20 AM77 °FSunny.1 mph54%30.18 "Hg10 mi
Weather by CustomWeather, © 2015

See weather overviewHow to use our weather pages